ICE38C CYYZ-BIKF

Flight info

Callsign ICE38C
Flight time N/A
Altitude 38000
Route SEDOG6 BOBSU DCT 46N078W DCT MT DCT GELLS DCT 5330N07000W DCT TEALS DCT UDMAR/M080F380 DCT TOXIT DCT 60N050W 6130N04000W 63N030W DCT EPENI DCT ELDIS ELDIS4N
Aircraft B38M/M-SDE1FGHILORVWXY/HB1

Departure

Time N/A
Airport Toronto Pearson International Airport (CYYZ)

Arrival

Time 2026-05-07 00:25
Airport Keflavik International Airport (BIKF)
Time Latitude Longitude Altitude Speed Heading
2026-05-06 23:30 62.34301 -35.10379 35838 ft 456 kts 72°
2026-05-06 23:30 62.35274 -35.03883 36106 ft 456 kts 72°
2026-05-06 23:30 62.36244 -34.97386 36358 ft 455 kts 72°
2026-05-06 23:30 62.37208 -34.90901 36586 ft 455 kts 72°
2026-05-06 23:31 62.38170 -34.84404 36804 ft 455 kts 72°
2026-05-06 23:31 62.39131 -34.77898 37020 ft 455 kts 72°
2026-05-06 23:31 62.40087 -34.71390 37225 ft 455 kts 72°
2026-05-06 23:31 62.41041 -34.64880 37423 ft 455 kts 72°
2026-05-06 23:32 62.41979 -34.58451 37598 ft 455 kts 72°
2026-05-06 23:32 62.42927 -34.51931 37785 ft 456 kts 72°
2026-05-06 23:32 62.43872 -34.45402 37947 ft 456 kts 72°
2026-05-06 23:33 62.45755 -34.32321 37998 ft 455 kts 72°
2026-05-06 23:33 62.47619 -34.19275 38001 ft 455 kts 73°
2026-05-06 23:34 62.49459 -34.06288 38000 ft 455 kts 73°
2026-05-06 23:34 62.51301 -33.93191 38000 ft 455 kts 73°
2026-05-06 23:35 62.53129 -33.80089 38000 ft 455 kts 73°
2026-05-06 23:35 62.54946 -33.66958 38000 ft 455 kts 73°
2026-05-06 23:36 62.56738 -33.53907 38000 ft 455 kts 73°
2026-05-06 23:36 62.58531 -33.40742 38000 ft 455 kts 73°
2026-05-06 23:37 62.60310 -33.27576 38000 ft 455 kts 73°
2026-05-06 23:37 62.62076 -33.14400 38000 ft 455 kts 73°
2026-05-06 23:38 62.63834 -33.01175 38000 ft 455 kts 74°
2026-05-06 23:38 62.65564 -32.88050 38000 ft 455 kts 74°
2026-05-06 23:39 62.67294 -32.74813 38000 ft 455 kts 74°
2026-05-06 23:39 62.69013 -32.61554 38000 ft 455 kts 74°
2026-05-06 23:40 62.70717 -32.48298 38000 ft 455 kts 74°
2026-05-06 23:40 62.72400 -32.35087 38000 ft 455 kts 74°
2026-05-06 23:41 62.74080 -32.21789 38000 ft 455 kts 75°
2026-05-06 23:41 62.75749 -32.08473 38000 ft 455 kts 75°
2026-05-06 23:42 62.77402 -31.95156 38000 ft 455 kts 75°
2026-05-06 23:42 62.79036 -31.81888 38000 ft 455 kts 75°
2026-05-06 23:43 62.80664 -31.68546 38000 ft 455 kts 75°
2026-05-06 23:43 62.82284 -31.55150 38000 ft 455 kts 75°
2026-05-06 23:44 62.83889 -31.41758 38000 ft 455 kts 75°
2026-05-06 23:44 62.85469 -31.28451 38000 ft 455 kts 75°
2026-05-06 23:45 62.87050 -31.15025 38000 ft 455 kts 75°
2026-05-06 23:45 62.88617 -31.01590 38000 ft 455 kts 76°
2026-05-06 23:46 62.90166 -30.88235 38000 ft 455 kts 76°
2026-05-06 23:46 62.91713 -30.74773 38000 ft 455 kts 76°
2026-05-06 23:47 62.93249 -30.61299 38000 ft 455 kts 76°
2026-05-06 23:47 62.94773 -30.47809 38000 ft 455 kts 76°
2026-05-06 23:48 62.96274 -30.34401 38000 ft 455 kts 76°
2026-05-06 23:48 62.97775 -30.20878 38000 ft 455 kts 76°
2026-05-06 23:49 62.99261 -30.07371 38000 ft 455 kts 76°
2026-05-06 23:49 63.00932 -29.93937 38010 ft 455 kts 73°
2026-05-06 23:50 63.02730 -29.80652 38001 ft 455 kts 73°
2026-05-06 23:50 63.05412 -29.60627 38000 ft 455 kts 73°
2026-05-06 23:51 63.07191 -29.47209 38000 ft 455 kts 73°
2026-05-06 23:51 63.08957 -29.33774 38000 ft 455 kts 73°
2026-05-06 23:52 63.10694 -29.20445 38000 ft 455 kts 74°
2026-05-06 23:52 63.12433 -29.06994 38000 ft 455 kts 74°
2026-05-06 23:53 63.14159 -28.93526 38000 ft 455 kts 74°
2026-05-06 23:53 63.15871 -28.80050 38000 ft 455 kts 74°
2026-05-06 23:54 63.17560 -28.66646 38000 ft 455 kts 74°
2026-05-06 23:54 63.19249 -28.53116 38000 ft 455 kts 75°
2026-05-06 23:55 63.20923 -28.39595 38000 ft 455 kts 75°
2026-05-06 23:55 63.22584 -28.26050 38000 ft 455 kts 75°
2026-05-06 23:56 63.24220 -28.12602 38000 ft 455 kts 75°
2026-05-06 23:56 63.25858 -27.99003 38000 ft 455 kts 75°
2026-05-06 23:57 63.27481 -27.85419 38000 ft 455 kts 75°
2026-05-06 23:57 63.29092 -27.71800 38000 ft 455 kts 75°
2026-05-06 23:58 63.30678 -27.58273 38000 ft 455 kts 75°
2026-05-06 23:58 63.32262 -27.44641 38000 ft 455 kts 75°
2026-05-06 23:59 63.33835 -27.30976 38000 ft 455 kts 76°
2026-05-06 23:59 63.35394 -27.17314 37916 ft 454 kts 76°
2026-05-07 00:00 63.36158 -27.10586 37174 ft 455 kts 76°
2026-05-07 00:00 63.36944 -27.03634 36389 ft 458 kts 76°
2026-05-07 00:00 63.37709 -26.96845 35698 ft 458 kts 76°
2026-05-07 00:00 63.38236 -26.92286 35212 ft 458 kts 73°
2026-05-07 00:01 63.39575 -26.83218 34062 ft 463 kts 72°
2026-05-07 00:01 63.40573 -26.76386 33308 ft 463 kts 72°
2026-05-07 00:01 63.41557 -26.69532 32607 ft 463 kts 72°
2026-05-07 00:01 63.42531 -26.62696 31947 ft 461 kts 72°
2026-05-07 00:02 63.43496 -26.55893 31369 ft 457 kts 72°
2026-05-07 00:02 63.44433 -26.49253 30819 ft 454 kts 72°
2026-05-07 00:02 63.45376 -26.42551 30237 ft 450 kts 72°
2026-05-07 00:02 63.46310 -26.35885 29653 ft 448 kts 72°
2026-05-07 00:03 63.47236 -26.29251 29080 ft 445 kts 72°
2026-05-07 00:03 63.48149 -26.22677 28499 ft 442 kts 72°
2026-05-07 00:03 63.49057 -26.16122 27944 ft 439 kts 72°
2026-05-07 00:03 63.49957 -26.09597 27379 ft 437 kts 73°
2026-05-07 00:04 63.50846 -26.03123 26822 ft 434 kts 73°
2026-05-07 00:04 63.51714 -25.96780 26278 ft 431 kts 73°
2026-05-07 00:04 63.52588 -25.90364 25725 ft 428 kts 73°
2026-05-07 00:04 63.53449 -25.84022 25180 ft 426 kts 73°
2026-05-07 00:05 63.54309 -25.77666 24632 ft 423 kts 73°
2026-05-07 00:05 63.55155 -25.71385 24102 ft 420 kts 73°
2026-05-07 00:05 63.55995 -25.65126 23568 ft 418 kts 73°
2026-05-07 00:05 63.56827 -25.58903 23050 ft 415 kts 73°
2026-05-07 00:06 63.57651 -25.52717 22524 ft 412 kts 73°
2026-05-07 00:06 63.58465 -25.46582 22017 ft 409 kts 73°
2026-05-07 00:06 63.59262 -25.40549 21519 ft 406 kts 73°
2026-05-07 00:06 63.60061 -25.34482 21021 ft 404 kts 73°
2026-05-07 00:07 63.60852 -25.28456 20530 ft 401 kts 73°
2026-05-07 00:07 63.61636 -25.22454 20056 ft 398 kts 73°
2026-05-07 00:07 63.62410 -25.16512 19584 ft 395 kts 73°
2026-05-07 00:07 63.63175 -25.10616 19120 ft 392 kts 73°
2026-05-07 00:08 63.63935 -25.04737 18662 ft 389 kts 73°
2026-05-07 00:08 63.64683 -24.98928 18211 ft 386 kts 73°
2026-05-07 00:08 63.65418 -24.93205 17773 ft 383 kts 73°
2026-05-07 00:08 63.66156 -24.87450 17329 ft 381 kts 74°
2026-05-07 00:09 63.66884 -24.81755 16897 ft 378 kts 74°
2026-05-07 00:09 63.67581 -24.76076 16436 ft 375 kts 78°
2026-05-07 00:09 63.67922 -24.70250 15987 ft 373 kts 83°
2026-05-07 00:09 63.68230 -24.64469 15576 ft 369 kts 83°
2026-05-07 00:10 63.68534 -24.58742 15161 ft 366 kts 83°
2026-05-07 00:10 63.68834 -24.53071 14734 ft 364 kts 83°
2026-05-07 00:10 63.69126 -24.47514 14333 ft 361 kts 83°
2026-05-07 00:10 63.69418 -24.41905 13925 ft 358 kts 83°
2026-05-07 00:11 63.69705 -24.36348 13516 ft 355 kts 83°
2026-05-07 00:11 63.69988 -24.30841 13111 ft 353 kts 83°
2026-05-07 00:11 63.70267 -24.25361 12706 ft 350 kts 83°
2026-05-07 00:11 63.70542 -24.19928 12303 ft 348 kts 83°
2026-05-07 00:12 63.70813 -24.14530 11905 ft 345 kts 83°
2026-05-07 00:12 63.71078 -24.09239 11513 ft 343 kts 83°
2026-05-07 00:12 63.71340 -24.03899 11071 ft 342 kts 83°
2026-05-07 00:12 63.71598 -23.98627 10824 ft 332 kts 84°
2026-05-07 00:13 63.71841 -23.93613 10708 ft 311 kts 84°
2026-05-07 00:13 63.72069 -23.88905 10583 ft 292 kts 84°
2026-05-07 00:13 63.72280 -23.84484 10449 ft 276 kts 84°
2026-05-07 00:13 63.72482 -23.80248 10326 ft 267 kts 84°
2026-05-07 00:14 63.72678 -23.76108 10192 ft 266 kts 84°
2026-05-07 00:14 63.72877 -23.71880 10081 ft 275 kts 84°
2026-05-07 00:14 63.73077 -23.67598 9857 ft 280 kts 84°
2026-05-07 00:14 63.73280 -23.63225 9546 ft 281 kts 84°
2026-05-07 00:15 63.73482 -23.58833 9232 ft 280 kts 84°
2026-05-07 00:15 63.73681 -23.54483 8927 ft 278 kts 84°
2026-05-07 00:15 63.73878 -23.50153 8626 ft 277 kts 84°
2026-05-07 00:15 63.74073 -23.45844 8336 ft 275 kts 84°
2026-05-07 00:16 63.74266 -23.41555 8031 ft 273 kts 84°
2026-05-07 00:16 63.74455 -23.37302 7737 ft 272 kts 84°
2026-05-07 00:16 63.74640 -23.33133 7448 ft 270 kts 84°
2026-05-07 00:16 63.74825 -23.28914 7149 ft 268 kts 84°
2026-05-07 00:17 63.75008 -23.24735 6870 ft 267 kts 84°
2026-05-07 00:17 63.75188 -23.20579 6577 ft 265 kts 84°
2026-05-07 00:17 63.75366 -23.16444 6291 ft 263 kts 84°
2026-05-07 00:17 63.75543 -23.12329 5941 ft 264 kts 84°
2026-05-07 00:18 63.75719 -23.08178 5534 ft 265 kts 84°
2026-05-07 00:18 63.75892 -23.04080 5166 ft 259 kts 84°
2026-05-07 00:18 63.76059 -23.00104 4872 ft 250 kts 84°
2026-05-07 00:18 63.76217 -22.96310 4606 ft 242 kts 84°
2026-05-07 00:19 63.76376 -22.92477 4351 ft 250 kts 84°
2026-05-07 00:19 63.76537 -22.88583 4173 ft 243 kts 84°
2026-05-07 00:19 63.76689 -22.84899 4041 ft 228 kts 84°
2026-05-07 00:19 63.77006 -22.81523 3888 ft 213 kts 69°
2026-05-07 00:20 63.77505 -22.78473 3850 ft 199 kts 70°
2026-05-07 00:20 63.77967 -22.75634 3779 ft 187 kts 70°
2026-05-07 00:20 63.78409 -22.72908 3623 ft 183 kts 69°
2026-05-07 00:20 63.78844 -22.70225 3497 ft 181 kts 70°
2026-05-07 00:21 63.79271 -22.67580 3377 ft 181 kts 70°
2026-05-07 00:21 63.79702 -22.64911 3256 ft 181 kts 70°
2026-05-07 00:21 63.80276 -22.62410 3048 ft 180 kts 44°
2026-05-07 00:21 63.81349 -22.61088 2772 ft 177 kts 11°
2026-05-07 00:22 63.82576 -22.60842 2549 ft 178 kts
2026-05-07 00:22 63.83808 -22.60674 2320 ft 178 kts
2026-05-07 00:22 63.85043 -22.60564 2080 ft 177 kts
2026-05-07 00:22 63.86262 -22.60545 1853 ft 171 kts 359°
2026-05-07 00:23 63.87400 -22.60546 1787 ft 160 kts 359°
2026-05-07 00:23 63.88494 -22.60547 1691 ft 155 kts 359°
2026-05-07 00:23 63.89553 -22.60547 1499 ft 150 kts 359°
2026-05-07 00:23 63.90631 -22.60525 1318 ft 164 kts
2026-05-07 00:24 63.91765 -22.60470 1082 ft 163 kts 360°
2026-05-07 00:24 63.92889 -22.60488 844 ft 161 kts 358°
2026-05-07 00:24 63.94009 -22.60514 631 ft 159 kts 359°
2026-05-07 00:24 63.95086 -22.60527 419 ft 149 kts 359°
2026-05-07 00:25 63.96081 -22.60544 241 ft 142 kts 359°
2026-05-07 00:25 63.97017 -22.60550 145 ft 121 kts 359°
2026-05-07 00:25 63.97659 -22.60551 151 ft 61 kts
2026-05-07 00:25 63.97933 -22.60549 150 ft 21 kts
2026-05-07 00:26 63.98005 -22.60549 151 ft 16 kts